• In Hungary
  • List of Countries
  • For 7 days
  • Water Temperature
  • Satellite Maps
  • Weather Map
  • News
  • Weather Widgets
  • user-avatar
    Login

    Hourly Weather Mezhgore

    Today, 28 May, Monday

    Time Temperature Precipitation Wind Pressure Humidity
    00:00 +9°C° 0.1 mm 6 mps 712 mmHg 85%
    01:00 +9°C° 0.1 mm 6 mps 711 mmHg 85%
    02:00 +8°C° 0.2 mm 6 mps 711 mmHg 87%
    03:00 +8°C° 0.2 mm 6 mps 710 mmHg 88%
    04:00 +8°C° 0.2 mm 7 mps 709 mmHg 90%
    05:00 +8°C° 1.5 mm 7 mps 709 mmHg 90%
    06:00 +6°C° 1.5 mm 7 mps 708 mmHg 91%
    07:00 +6°C° 1.5 mm 7 mps 708 mmHg 91%
    08:00 +7°C° 1 mm 6 mps 708 mmHg 92%
    09:00 +6°C° 1 mm 5 mps 708 mmHg 92%
    10:00 +6°C° 1 mm 4 mps 708 mmHg 93%
    11:00 +6°C° 0.2 mm 4 mps 709 mmHg 86%
    12:00 +8°C° 0.2 mm 3 mps 709 mmHg 80%
    13:00 +9°C° 0.2 mm 3 mps 710 mmHg 74%
    14:00 +9°C° 0.6 mm 3 mps 710 mmHg 76%
    15:00 +9°C° 0.6 mm 3 mps 711 mmHg 78%
    16:00 +9°C° 0.6 mm 3 mps 711 mmHg 80%
    17:00 +8°C° 0.7 mm 3 mps 711 mmHg 84%
    18:00 +7°C° 0.7 mm 3 mps 711 mmHg 88%
    19:00 +5°C° 0.7 mm 3 mps 712 mmHg 91%
    20:00 +4°C° 0.4 mm 3 mps 712 mmHg 91%
    21:00 +5°C° 0.4 mm 2 mps 712 mmHg 91%
    22:00 +4°C° 0.4 mm 2 mps 713 mmHg 91%
    23:00 +3°C° 0 mm 2 mps 713 mmHg 92%

    Tomorrow, 29 May, Tuesday

    Time Temperature Precipitation Wind Pressure Humidity
    00:00 +2°C° 0 mm 2 mps 713 mmHg 93%
    01:00 +1°C° 0 mm 2 mps 713 mmHg 94%
    02:00 +1°C° 0 mm 1 mps 713 mmHg 95%
    03:00 0°C° 0 mm 1 mps 713 mmHg 95%
    04:00 0°C° 0 mm 1 mps 714 mmHg 96%
    05:00 +1°C° 0 mm 1 mps 714 mmHg 91%
    06:00 +2°C° 0 mm 2 mps 714 mmHg 86%
    07:00 +3°C° 0 mm 2 mps 715 mmHg 82%
    08:00 +4°C° 0 mm 3 mps 715 mmHg 71%
    09:00 +5°C° 0 mm 4 mps 715 mmHg 60%
    10:00 +6°C° 0 mm 4 mps 715 mmHg 49%
    11:00 +6°C° 0.1 mm 4 mps 714 mmHg 48%
    12:00 +7°C° 0.1 mm 4 mps 714 mmHg 48%
    13:00 +7°C° 0.1 mm 4 mps 714 mmHg 48%
    14:00 +7°C° 0.1 mm 4 mps 713 mmHg 51%
    15:00 +7°C° 0.1 mm 4 mps 713 mmHg 55%
    16:00 +6°C° 0.1 mm 4 mps 713 mmHg 58%
    17:00 +6°C° 0.2 mm 4 mps 713 mmHg 65%
    18:00 +5°C° 0.2 mm 3 mps 713 mmHg 72%
    19:00 +5°C° 0.2 mm 2 mps 712 mmHg 80%
    20:00 +4°C° 0 mm 2 mps 712 mmHg 85%
    21:00 +4°C° 0 mm 1 mps 712 mmHg 91%
    22:00 +3°C° 0 mm 1 mps 712 mmHg 96%
    23:00 +3°C° 0 mm 1 mps 712 mmHg 97%

    Day after tomorrow, 30 May, Wednesday

    Time Temperature Precipitation Wind Pressure Humidity
    00:00 +2°C° 0 mm 1 mps 712 mmHg 97%
    01:00 +2°C° 0 mm 1 mps 712 mmHg 98%
    02:00 +2°C° 0 mm 1 mps 712 mmHg 98%
    03:00 +2°C° 0 mm 1 mps 712 mmHg 98%
    04:00 +2°C° 0 mm 1 mps 712 mmHg 98%
    05:00 +3°C° 0 mm 1 mps 712 mmHg 93%
    06:00 +4°C° 0 mm 2 mps 712 mmHg 88%
    07:00 +5°C° 0 mm 2 mps 712 mmHg 83%
    08:00 +6°C° 0 mm 2 mps 712 mmHg 79%
    09:00 +7°C° 0 mm 2 mps 712 mmHg 74%
    10:00 +9°C° 0 mm 3 mps 711 mmHg 70%
    11:00 +9°C° 0.1 mm 3 mps 711 mmHg 69%
    12:00 +10°C° 0.1 mm 3 mps 711 mmHg 67%
    13:00 +11°C° 0.1 mm 4 mps 710 mmHg 66%
    14:00 +11°C° 0.3 mm 4 mps 710 mmHg 74%
    15:00 +10°C° 0.3 mm 4 mps 709 mmHg 83%
    16:00 +10°C° 0.3 mm 4 mps 708 mmHg 91%
    17:00 +11°C° 0.2 mm 4 mps 708 mmHg 91%
    18:00 +11°C° 0.2 mm 4 mps 707 mmHg 91%
    19:00 +12°C° 0.2 mm 4 mps 707 mmHg 90%
    20:00 +12°C° 0.1 mm 5 mps 706 mmHg 91%
    21:00 +10°C° 0.1 mm 5 mps 706 mmHg 92%
    22:00 +10°C° 0.1 mm 5 mps 705 mmHg 93%
    23:00 +10°C° 0.2 mm 6 mps 705 mmHg 93%

    31 May, Thursday

    Time Temperature Precipitation Wind Pressure Humidity
    00:00 +10°C° 0.2 mm 6 mps 704 mmHg 93%
    01:00 +11°C° 0.2 mm 6 mps 703 mmHg 93%
    02:00 +11°C° 0.7 mm 6 mps 703 mmHg 94%
    03:00 +11°C° 0.7 mm 7 mps 703 mmHg 94%
    04:00 +11°C° 0.7 mm 7 mps 703 mmHg 94%
    05:00 +10°C° 0.6 mm 7 mps 703 mmHg 92%
    06:00 +10°C° 0.6 mm 6 mps 704 mmHg 90%
    07:00 +10°C° 0.6 mm 6 mps 704 mmHg 87%
    08:00 +11°C° 0 mm 7 mps 704 mmHg 76%
    09:00 +12°C° 0 mm 7 mps 705 mmHg 65%
    10:00 +13°C° 0 mm 8 mps 705 mmHg 54%
    11:00 +13°C° 0 mm 8 mps 706 mmHg 53%
    12:00 +15°C° 0 mm 8 mps 706 mmHg 52%
    13:00 +15°C° 0 mm 8 mps 706 mmHg 50%
    14:00 +15°C° 0.1 mm 7 mps 706 mmHg 54%
    15:00 +14°C° 0.1 mm 7 mps 707 mmHg 57%
    16:00 +14°C° 0.1 mm 7 mps 707 mmHg 60%
    17:00 +13°C° 0 mm 6 mps 707 mmHg 65%
    18:00 +10°C° 0 mm 5 mps 707 mmHg 70%
    19:00 +10°C° 0 mm 4 mps 707 mmHg 75%
    20:00 +9°C° 0.3 mm 3 mps 708 mmHg 82%
    21:00 +8°C° 0.3 mm 2 mps 708 mmHg 88%
    22:00 +6°C° 0.3 mm 2 mps 708 mmHg 95%
    23:00 +5°C° 0.1 mm 2 mps 709 mmHg 95%

    1 June, Friday

    Time Temperature Precipitation Wind Pressure Humidity
    00:00 +5°C° 0.1 mm 2 mps 709 mmHg 95%
    01:00 +4°C° 0.1 mm 2 mps 709 mmHg 95%
    02:00 +3°C° 0 mm 2 mps 710 mmHg 96%
    03:00 +2°C° 0 mm 2 mps 710 mmHg 96%
    04:00 +2°C° 0 mm 1 mps 711 mmHg 97%
    05:00 +2°C° 0 mm 2 mps 711 mmHg 92%
    06:00 +4°C° 0 mm 2 mps 712 mmHg 86%
    07:00 +5°C° 0 mm 2 mps 713 mmHg 81%
    08:00 +6°C° 0 mm 2 mps 713 mmHg 70%
    09:00 +8°C° 0 mm 2 mps 714 mmHg 60%
    10:00 +10°C° 0 mm 3 mps 714 mmHg 49%
    11:00 +11°C° 0 mm 3 mps 715 mmHg 46%
    12:00 +12°C° 0 mm 3 mps 715 mmHg 42%
    13:00 +13°C° 0 mm 3 mps 715 mmHg 39%
    14:00 +13°C° 0 mm 3 mps 715 mmHg 39%
    15:00 +13°C° 0 mm 3 mps 715 mmHg 39%
    16:00 +13°C° 0 mm 3 mps 715 mmHg 39%
    17:00 +13°C° 0 mm 2 mps 715 mmHg 45%
    18:00 +12°C° 0 mm 2 mps 715 mmHg 50%
    19:00 +10°C° 0 mm 2 mps 715 mmHg 56%
    20:00 +8°C° 0 mm 2 mps 715 mmHg 64%
    21:00 +7°C° 0 mm 1 mps 715 mmHg 72%
    22:00 +5°C° 0 mm 1 mps 715 mmHg 80%
    23:00 +5°C° 0 mm 1 mps 715 mmHg 81%

    2 June, Saturday

    Time Temperature Precipitation Wind Pressure Humidity
    00:00 +4°C° 0 mm 1 mps 715 mmHg 81%
    01:00 +4°C° 0 mm 1 mps 715 mmHg 82%
    02:00 +4°C° 0 mm 1 mps 715 mmHg 80%
    03:00 +4°C° 0 mm 1 mps 715 mmHg 78%
    04:00 +4°C° 0 mm 1 mps 715 mmHg 76%
    05:00 +6°C° 0 mm 1 mps 716 mmHg 71%
    06:00 +7°C° 0 mm 1 mps 716 mmHg 66%
    07:00 +9°C° 0 mm 1 mps 716 mmHg 60%
    08:00 +9°C° 0 mm 2 mps 716 mmHg 58%
    09:00 +10°C° 0 mm 2 mps 716 mmHg 55%
    10:00 +12°C° 0 mm 2 mps 716 mmHg 52%
    11:00 +12°C° 0.1 mm 2 mps 716 mmHg 52%
    12:00 +12°C° 0.1 mm 2 mps 716 mmHg 53%
    13:00 +13°C° 0.1 mm 1 mps 716 mmHg 53%
    14:00 +13°C° 0.2 mm 2 mps 716 mmHg 54%
    15:00 +13°C° 0.2 mm 2 mps 716 mmHg 54%
    16:00 +13°C° 0.2 mm 2 mps 716 mmHg 55%
    17:00 +12°C° 0.1 mm 2 mps 716 mmHg 57%
    18:00 +12°C° 0.1 mm 2 mps 716 mmHg 60%
    19:00 +10°C° 0.1 mm 2 mps 716 mmHg 62%
    20:00 +8°C° 0 mm 2 mps 717 mmHg 70%
    21:00 +6°C° 0 mm 2 mps 717 mmHg 77%
    22:00 +4°C° 0 mm 1 mps 717 mmHg 84%
    23:00 +4°C° 0 mm 1 mps 717 mmHg 85%
    Show more